[Iaude] MPEC A66: 2003 QL96 [a=2.83,e=0.61,i=6.7,H=21.48]
    mpec at marsden.cfa.harvard.edu 
    mpec at marsden.cfa.harvard.edu
       
    Sun Jan  7 09:13:42 EST 2024
    
    
  
M.P.E.C. 2024-A66                               Issued 2024 January 7, 14:12 UT
     The Minor Planet Electronic Circulars contain information on unusual
         minor planets, routine data on comets and natural satellites,
         and occasional editorial announcements.  They are published
    on behalf of Division F of the International Astronomical Union by the
          Minor Planet Center, Smithsonian Astrophysical Observatory,
                          Cambridge, MA 02138, U.S.A.
			  
             Prepared using the Tamkin Foundation Computer Network
                              MPC at CFA.HARVARD.EDU
            URL https://www.minorplanetcenter.net/    ISSN 1523-6714
                                   2003 QL96                                    
                            Revision to MPEC 2003-R1                            
Additional Observations:
     K03Q96L  C2022 08 02.59949802 34 04.194+13 05 57.84         21.43GVEA066F52
     K03Q96L  C2022 08 02.60660002 34 05.004+13 06 08.69         21.59GVEA066F52
     K03Q96L  C2022 08 02.61363502 34 05.813+13 06 19.35         21.63GVEA066F52
     K03Q96L  C2022 09 08.51521103 15 12.453+24 20 17.33         21.10GVEA066F52
     K03Q96L  C2022 09 22.49408203 09 50.846+26 38 33.94         22.12wUEA066F52
     K03Q96L  C2022 09 22.50556503 09 50.212+26 38 39.17         22.06wUEA066F52
     K03Q96L  C2022 09 22.51705803 09 49.582+26 38 44.48         22.13wUEA066F52
     K03Q96L  C2022 09 22.52857903 09 48.943+26 38 49.60         22.16wUEA066F52
     K03Q96L  C2022 10 28.50295702 17 50.110+26 38 31.78         22.87GVEA066F52
     K03Q96L  C2022 11 17.23518401 55 31.146+24 17 51.96         22.74GVEA066F51
     K03Q96L  C2022 11 17.27548001 55 29.302+24 17 35.72         22.66GVEA066F51
     K03Q96L  C2022 11 18.45902601 54 40.051+24 09 24.30         21.54GVEA066F52
Observer details:
F51 Pan-STARRS 1, Haleakala.  Observers J. Herman, T. Lowe, P. Minguez, A.
    Schultz, I. Smith.  Measurers K. Chambers, T. de Boer, J. Fairlamb, H.
    Gao, M. Huber, C.-C. Lin, E. Magnier, Y. Ramanjooloo, R. Wainscoat, R.
    Weryk.  1.8-m Ritchey-Chretien + CCD.
F52 Pan-STARRS 2, Haleakala.  Observers J. Herman, T. Lowe, P. Minguez, A.
    Schultz, I. Smith, J. Bulger.  Measurers K. Chambers, T. de Boer, J.
    Fairlamb, H. Gao, M. Huber, C.-C. Lin, E. Magnier, Y. Ramanjooloo, R.
    Wainscoat, R. Weryk, S. Chastel.  1.8-m Ritchey-Chretien + CCD.
First and last observations above in comparison with prediction:
Residuals in seconds of arc (or two decimals in degrees), reference and Delta-T
220802 F52 0.02+ 0.02+    221118 F52 0.03+ 0.01+    MPO 62447   +0.04 days
Orbital elements:
2003 QL96                                                Earth MOID = 0.1040 AU
Epoch 2023 Sept. 13.0 TT = JDT 2460200.5                Veres                   
M  89.95957              (2000.0)            P               Q                  
n   0.20715711     Peri.  322.82734     +0.63064595     +0.77556679             
a   2.8288037      Node   346.19715     -0.68089257     +0.53565547             
e   0.6130576      Incl.    6.73044     -0.37238553     +0.33402003             
P   4.76           H   21.48          G   0.15           U   0                  
Residuals in seconds of arc
030831 704  0.0   0.3-    030905 204  0.9+  0.7-    030918 240  0.7-  0.3-
030831 704  0.1-  0.1-    030905 204  0.3+  0.7+    030918 240  0.7-  0.2-
030831 704  0.1+  0.3-    030905 448  0.0   0.2-    030918 670  1.4-  0.4-
030831 704  0.1+  0.5-    030905 448  0.0   0.4-    030918 670  0.2+  0.6-
030831 704  0.3-  0.1+    030905 448  0.0   0.1+    030918 132  0.8+  0.2-
030831 106  0.6+  0.4+    030905 413  0.1-  0.2-    030918 132  0.2-  0.2+
030831 046  0.1+  0.1-    030905 413  0.0   0.1-    030918 132  0.1-  0.2-
030831 046  0.8-  0.1-    030905 413  0.0   0.1-    030919 704  0.1-  0.9+
030831 046  0.9+  0.6+    030906 176  0.0   0.2+    030919 704  0.3-  0.5+
030831 046  1.7-  0.8-    030906 176  0.0   0.2+    030919 704  0.2+  0.5+
030831 118  1.2+  0.6-    030906 176  0.0   0.2+    030919 704  0.2+  0.9+
030831 046  0.1-  0.7+    030906 176  0.1+  0.2+    030919 704  0.2-  1.1+
030831 046  0.3+  1.0-    030906 176  0.1+  0.2+    030919 113  0.9+  0.1-
030831 106  0.1+  0.7-    030907 859  0.5-  0.0     030919 113  0.5+  0.3+
030831 118  0.3-  0.2+    030907 859 (3.1+  1.2-)   030919 113  0.0   0.3+
030831 046  0.2+  1.5-    030907 859 (1.6-  3.4-)   030919 113  0.3+  0.6+
030831 118  0.7-  1.0-    030907 413  0.1+  0.2-    030919 113  0.9+  1.3+
030831 118  0.1+  1.1+    030907 413  0.1+  0.1-    030920 704  0.0   0.6+
030831 046  0.6+  1.0+    030907 413  0.1+  0.3-    030920 704  0.7+  0.5+
030831 118  0.2+  0.6+    030907 413  0.0   0.2-    030920 704  0.3-  0.2+
030831 106  0.1+  0.3-    030908 E14  0.1+  0.1-    030920 704  0.2-  0.3+
030831 106  1.1+  0.9-    030908 E14  1.0-  0.6+    030920 704  0.5+  0.1+
030831 557  0.3-  0.2-    030908 E14  0.2+  0.5-    030921 704  1.3+  1.6+
030831 557  0.6-  0.2+    030913 448  0.1-  0.1-    030921 704  0.1-  0.6-
030831 557  0.4-  0.2+    030913 448  0.3+  0.1+    030921 644  0.2-  0.5+
030831 557  0.9-  0.4+    030913 448  0.1+  0.0     030921 704  0.2-  0.2+
030831 557  0.3-  0.2+    030913 163  1.2+  1.4-    030921 704  0.5-  0.2-
030831 557  0.6-  0.2+    030913 163  0.8+  0.6-    030921 644  0.2-  0.5+
030901 704  0.3+  0.2-    030913 163  1.6+  1.4+    030921 704  0.5+  0.0
030901 704  0.7-  0.2-    030913 163  0.6+  1.2+    030921 644  0.1-  0.5+
030901 704  0.1+  0.1-    030913 163  0.3+  0.6+    030930 704  0.6-  0.4-
030901 704  0.1-  0.5+    030914 608  0.4-  0.1+    030930 704  0.4-  0.3+
030901 704  0.0   0.5-    030914 608  0.4+  0.5-    030930 704  0.1+  0.3-
030901 704  0.3-  0.4-    030914 608  0.4-  1.0-    030930 704  0.1-  0.1+
030901 704  0.1+  0.2-    030914 118  0.1-  0.2+    030930 704  0.7-  0.2+
030901 704  0.3-  0.0     030914 118  0.6-  0.2+    031003 691  0.1-  0.1-
030901 704  0.3-  0.1-    030914 118  0.9+  0.2+    031003 691  0.1+  0.2-
030901 704  0.1+  0.4-    030914 118  0.3+  0.1+    031003 691  0.4-  0.2-
030903 215  0.5+  0.7+    030915 699  0.4-  0.3+    031029 696  0.2+  0.6-
030903 215  0.1+  0.0     030915 699  0.2-  0.7-    031029 696  0.3+  0.3+
030903 215  0.3+  0.3+    030915 699  0.1+  0.3-    031030 568  0.0   0.0
030903 215  0.8+  0.3-    030915 699  1.1-  0.8-    031030 568  0.0   0.0
030903 215  0.3+  0.3+    030916 246  0.1-  0.2-    031030 568  0.1+  0.0
030903 215  0.3+  0.4+    030916 246  0.1+  0.0     031030 568  0.1+  0.0
030903 163  0.5+  0.9+    030916 246  0.0   0.1+    031030 568  0.1+  0.0
030903 163  0.2+  0.2+    030916 246  0.2+  0.4-    220802 F52  0.2+  0.1-
030903 163  0.7-  0.3-    030916 170  0.1-  0.3+    220802 F52  0.1-  0.0
030903 163  0.2+  1.6+    030916 170  0.3-  0.3+    220802 F52  0.4-  0.0
030903 118  0.6-  0.3-    030916 170  0.1-  0.2+    220908 F52  0.2+  0.3+
030903 118  0.3-  0.1-    030916 118  0.1+  1.2+    220922 F52  0.0   0.0
030903 118  0.1+  0.1+    030916 118  0.3+  0.0     220922 F52  0.0   0.0
030904 204  0.0   0.4-    030916 118  0.3+  0.7+    220922 F52  0.0   0.1+
030904 204  0.6-  0.3-    030917 132  0.5-  0.3-    220922 F52  0.0   0.0
030904 204  0.1-  0.6+    030917 132  0.0   0.1-    221028 F52  0.2+  0.0
030904 204  0.3-  0.0     030917 132  0.1-  0.2-    221117 F51  0.1-  0.1-
030904 204  0.2-  0.1+    030917 240  0.1+  0.2-    221117 F51  0.1-  0.0
030904 204  0.2-  0.2+    030917 240  0.0   0.5-    221118 F52  0.1+  0.2-
030905 204  0.6+  0.6-    030917 240  0.2-  0.4-
Ephemeris:
2003 QL96                a,e,i = 2.83, 0.61, 7                   q = 1.0946
Date    TT    R. A. (2000) Decl.     Delta      r    Elong.  Phase     V
2023 12 08    07 50 26.6 +28 31 20   3.2097  4.0187   140.5     9.0    27.6
...
2023 12 23    07 38 29.9 +29 09 41   3.1381  4.0657   157.8     5.3    27.4
...
2023 12 31    07 30 57.1 +29 27 11   3.1270  4.0898   166.5     3.2    27.3
...
2024 01 06    07 25 01.0 +29 37 55   3.1322  4.1075   171.6     2.0    27.3
2024 01 07    07 24 01.0 +29 39 28   3.1342  4.1104   172.1     1.9    27.3
2024 01 08    07 23 01.0 +29 40 57   3.1366  4.1133   172.4     1.8    27.3
...
2024 01 14    07 17 02.7 +29 48 18   3.1576  4.1305   170.3     2.3    27.3
...
2024 01 22    07 09 22.6 +29 53 47   3.2040  4.1528   162.4     4.1    27.5
...
2024 02 06    06 57 00.8 +29 51 26   3.3436  4.1931   145.4     7.7    27.8
A. U. Tomatic                (C) Copyright 2024 MPC           M.P.E.C. 2024-A66
    
    
More information about the Iaude
mailing list